• Processing (Info)

  • MPEC 2023-P47 : 2023 PL

    The following Minor Planet Electronic Circular may be linked-to from your own Web pages, but must not otherwise be redistributed electronically.

    A form allowing access to any MPEC is at the bottom of this page.


    Read MPEC 2023-P46 Read MPEC 2023-P48


    M.P.E.C. 2023-P47                                Issued 2023 August 9, 13:56 UT
    
         The Minor Planet Electronic Circulars contain information on unusual
             minor planets, routine data on comets and natural satellites,
             and occasional editorial announcements.  They are published
        on behalf of Division F of the International Astronomical Union by the
              Minor Planet Center, Smithsonian Astrophysical Observatory,
                              Cambridge, MA 02138, U.S.A.
    			  
                 Prepared using the Tamkin Foundation Computer Network
    
                                  MPC@CFA.HARVARD.EDU
                URL https://www.minorplanetcenter.net/    ISSN 1523-6714
    
                                     2023 PL                                 
    
    
    Observations:
         K23P00L* C2023 08 07.21162720 33 05.618-22 35 22.02         15.42oVEP047W68
         K23P00L  C2023 08 07.22482020 33 13.162-22 46 50.74         15.78oVEP047W68
         K23P00L  C2023 08 07.23528820 33 19.171-22 55 54.34         16.04oVEP047W68
         K23P00L [C2023 08 08.39006 20 46 19.502-37 34 49.87         16.7 GVEP047Q62
         K23P00L [C2023 08 08.39216 20 46 20.808-37 36 13.14         16.7 GVEP047Q62
         K23P00L [C2023 08 08.39515 20 46 22.711-37 38 12.08         16.6 GVEP047Q62
         K23P00L [C2023 08 08.39769 20 46 24.269-37 39 52.06         16.8 GVEP047Q62
         K23P00L KB2023 08 08.94950520 52 35.794-43 12 52.55         17.1 GXEP047Y05
         K23P00L KB2023 08 08.95340520 52 38.238-43 15 04.48         17.0 GXEP047Y05
         K23P00L KB2023 08 08.95716720 52 40.566-43 17 11.36         17.6 GXEP047Y05
         K23P00L KB2023 08 09.04947 20 53 37.519-44 08 20.44         16.9 GXEP047X89
         K23P00L KB2023 08 09.05311 20 53 39.648-44 10 19.63         16.9 GXEP047X89
         K23P00L KB2023 08 09.05678 20 53 41.832-44 12 19.01         16.8 GXEP047X89
         K23P00L KC2023 08 09.48788 20 58 34.67 -47 48 35.2          17.3 VqEP047E23
         K23P00L KC2023 08 09.49483 20 58 38.89 -47 51 53.6          17.2 VqEP047E23
         K23P00L KC2023 08 09.50177 20 58 43.11 -47 55 11.3          17.2 VqEP047E23
    
    Observer details:
    E23 Arcadia.  Observer A. Hidas.  0.35-m f/1.9 reflector + CCD.
    Q62 iTelescope Observatory, Siding Spring.  Observer M. Suzuki.  0.28-m f/2.2
        reflector + CCD.
    W68 ATLAS Chile, Rio Hurtado.  Observers L. Denneau, R. Siverd, J. Tonry, H.
        Weiland.  Measurers L. Denneau, N. Erasmus, A. Fitzsimmons, A. Lawrence,
        J. Robinson, R. Siverd, J. Tonry, H. Weiland.  0.5-m Reflector + CCD.
    X89 Rocca Observatory, Brasilia.  Observer M. Andrade.  0.28-m f/2.0 reflector
        + CMO.
    Y05 SONEAR Wykrota-CEAMIG, Serra da Piedade.  Observer C. Jacques.  0.45-m
        f/2.9 reflector + CMO.
    
    Orbital elements:
    2023 PL                                                  Earth MOID = 0.0385 AU
    Epoch 2023 Sept. 13.0 TT = JDT 2460200.5                MPC                     
    M  34.51690              (2000.0)            P               Q                  
    n   0.51373310     Peri.  147.02418     +0.25389535     +0.87529196             
    a   1.5439895      Node   133.58273     -0.96385006     +0.26450988             
    e   0.3454085      Incl.   34.62395     -0.08080972     -0.40484381             
    P   1.92           H   22.24          G   0.15           U   9                  
    Residuals in seconds of arc
    230807 W68  0.0   0.9+    230808 Q62  0.4-  0.3+    230809 X89  0.2-  0.3-
    230807 W68  0.0   0.3-    230808 Y05  0.1-  0.0     230809 E23  0.1+  0.0
    230807 W68  0.0   0.0     230808 Y05  0.1-  0.0     230809 E23  0.0   0.1+
    230808 Q62  0.3+  0.2-    230808 Y05  0.3-  0.2+    230809 E23  0.1+  0.0
    230808 Q62  0.0   0.2+    230809 X89  0.1-  0.1+
    230808 Q62  0.1+  0.2-    230809 X89  0.3-  0.3-
    
    Ephemeris:
    2023 PL                  a,e,i = 1.54, 0.35, 35                  q = 1.0107
    Date    TT    R. A. (2000) Decl.     Delta      r    Elong.  Phase     V
    2023 07 10    17 39 37.8 +76 05 31   0.2958  1.0108    80.5    82.7    22.5
    ...
    2023 07 25    18 42 17.1 +68 40 29   0.1396  1.0252    89.9    82.3    20.9
    ...
    2023 08 02    19 41 07.4 +45 13 49   0.05929 1.0415   115.1    62.0    18.4
    ...
    2023 08 08    20 41 46.8 -33 05 59   0.04514 1.0572   162.1    17.1    16.5
    2023 08 09    20 52 56.9 -43 39 57   0.05185 1.0601   152.1    26.6    17.1
    2023 08 10    21 04 16.4 -51 31 23   0.05997 1.0630   144.2    33.9    17.7
    ...
    2023 08 16    22 11 10.1 -71 11 24   0.1202  1.0823   122.6    52.0    19.7
    ...
    2023 08 24    23 19 44.3 -76 48 54   0.2075  1.1116   113.9    56.3    21.1
    ...
    2023 09 08    00 12 26.5 -77 36 16   0.3703  1.1751   107.8    54.7    22.4
    
    A. U. Tomatic                (C) Copyright 2023 MPC           M.P.E.C. 2023-P47
    


    Read MPEC 2023-P46 Read MPEC 2023-P48


    MPEC number:

    Enter an MPEC number in one of the following forms:

    • 1997-B01 (the full form)
    • J97B01 (the packed version of the full form)
    • B01 (the abbreviated form)